Location: Ajisawe
(8.4333°N, 4.3833°E)
Time: 12:27:59
(UTC+00:00)

Courier 1B Rocket - Pass Details

Date: 29 April 2021
Orbit: 920 x 1202 km, 28.2° (Epoch: 07 May)

Event Time Altitude Azimuth Distance (km) Brightness Sun altitude
Rises 11:32:13 0° 229° (SW) 3,794 8.0 83.5°
Reaches altitude 10° 11:35:06 10° 224° (SW) 2,796 7.5 83.7°
Maximum altitude 11:41:35 50° 150° (SSE) 1,217 6.4 83.8°
Drops below altitude 10° 11:47:42 10° 76° (ENE) 2,639 7.4 83.5°
Sets 11:50:20 0° 71° (ENE) 3,563 8.0 83.3°
